Weather in Privetnoe

Russia / Republic of Crimea     44°49′19″N   34°40′39″E
temp.,
°C
wind,
m/s
gust,
m/s
humid.,
%
clouds,
%
prec.,
mm/h
press.,
hPa
HPBL,
m
27 july, tue
tue2700:00+25nnw686981 0.0 101599
03:00+25n686844 0.0 1015124
06:00+24n67695 0.0 1015111
09:00+28n45521 0.0 1016246
12:00+30nne66430 0.0 1016828
15:00+30ene67470 0.0 1015992
18:00+27e79570 0.0 1017756
21:00+24ene57680 0.0 1018287
28 july, wed
wed2800:00+24nnw23620 0.0 101892
03:00+23ne22560 0.0 1018111
06:00+23nne22530 0.0 101889
09:00+25e23490 0.0 1018324
12:00+25ese33560 0.0 1018336
15:00+25ssw12516 0.0 1017230
18:00+25sw225528 0.0 1016150
21:00+25w23630 0.0 101645
29 july, thu
thu2900:00+25nnw55580 0.0 101550
03:00+25n44580 0.0 101548
06:00+24nnw22590 0.0 101526
09:00+26sse11547 0.0 1014224
12:00+26s22530 0.0 1014265
15:00+25wsw335881 0.0 1014213
18:00+26wsw34620 0.0 1013207
21:00+24w34700 0.0 101298
30 july, fri
fri3000:00+25nw23590 0.0 101216
03:00+25n33580 0.0 101121
06:00+24ene22660 0.0 101230
09:00+26sw22631 0.0 1012205
12:00+27sw33590 0.0 1012272
15:00+25wsw33622 0.4 1011215
18:00+25wsw33640 0.1 1010166
21:00+24wnw23680 0.1 101055
31 july, sat
sat3100:00+25nw12630 0.0 100912
03:00+26n22600 0.0 100916
06:00+25ene22630 0.0 101019
09:00+27sse10620 0.0 1010167
12:00+28ssw32550 0.0 1010338
15:00+27wsw335933 0.0 1009235
18:00+27w33550 0.0 1009147
21:00+27wnw23590 0.0 100914